This is the latest recevied weather packets stored in our database for station/object N7IGG. If no packets are shown the sender has not sent any weather packets the latest 10 day(s).
| Time | Temp. | Humidity | Pressure | Rain* | Wind** | Luminosity | Snow |
|---|---|---|---|---|---|---|---|
| 1777303060 | 10.56° C | 85% | 1017.2 hPa | 0 mm | - | 34 W/m² | - |
| 1777302758 | 10° C | 85% | 1017.1 hPa | 0 mm | - | 29 W/m² | - |
| 1777302456 | 10.56° C | 85% | 1017.1 hPa | 0 mm | - | 27 W/m² | - |
| 1777302153 | 10.56° C | 85% | 1017 hPa | 0 mm | - | 24 W/m² | - |
| 1777301851 | 10.56° C | 85% | 1017.1 hPa | 0 mm | - | 26 W/m² | - |
| 1777301548 | 10.56° C | 85% | 1017 hPa | 0 mm | - | 26 W/m² | - |
| 1777301245 | 10.56° C | 85% | 1017.2 hPa | 0 mm | - | 29 W/m² | - |
| 1777300942 | 10.56° C | 85% | 1017.1 hPa | 0 mm | - | 26 W/m² | - |
| 1777300640 | 10° C | 85% | 1016.8 hPa | 0 mm | - | 26 W/m² | - |
| 1777300337 | 10.56° C | 85% | 1016.8 hPa | 0 mm | - | 24 W/m² | - |
| 1777300034 | 10° C | 85% | 1016.9 hPa | 0 mm | - | 26 W/m² | - |
| 1777299731 | 10° C | 85% | 1017 hPa | 0 mm | - | 15 W/m² | - |
| 1777299428 | 10° C | 86% | 1016.9 hPa | 0 mm | - | 12 W/m² | - |
| 1777299126 | 10° C | 86% | 1016.7 hPa | 0 mm | - | 17 W/m² | - |
| 1777298823 | 10° C | 86% | 1016.7 hPa | 0 mm | - | 17 W/m² | - |
| 1777298519 | 10° C | 86% | 1016.6 hPa | 0 mm | - | 12 W/m² | - |
| 1777298216 | 10° C | 86% | 1016.6 hPa | 0 mm | - | 13 W/m² | - |
| 1777297911 | 10° C | 86% | 1016.6 hPa | 0 mm | - | 12 W/m² | - |
| 1777297609 | 10° C | 86% | 1016.5 hPa | 0 mm | - | 16 W/m² | - |
| 1777297305 | 10° C | 87% | 1016.6 hPa | 0 mm | - | 12 W/m² | - |
| 1777297002 | 10° C | 87% | 1016.5 hPa | 0 mm | - | 11 W/m² | - |
| 1777296699 | 10° C | 87% | 1016.5 hPa | 0 mm | - | 7 W/m² | - |
| 1777296390 | 10° C | 87% | 1016.3 hPa | 0 mm | - | 6 W/m² | - |
| 1777296086 | 10° C | 87% | 1016.2 hPa | 0 mm | - | 2 W/m² | - |
| 1777295783 | 10° C | 87% | 1016.2 hPa | 0 mm | - | 1 W/m² | - |
* Rain latest hour (hover to see other rain measurements)
** Current wind speed in m/s (hover to see current wind gust speed)